Location: Peebles
(55.6412°N, 3.1714°W)
Time: 05:42:09
(UTC+01:00)

METEOR 2-8 DEB - Pass Details

Date: 10 July 2022
Orbit: 792 x 830 km, 82.5° (Epoch: 08 August)

Event Time Altitude Azimuth Distance (km) Brightness Sun altitude
Rises 23:51:03 0° 239° (WSW) 3,309 ? -10.0°
Reaches altitude 10° 23:54:02 10° 255° (WSW) 2,377 ? -10.2°
Maximum altitude 23:57:59 21° 303° (WNW) 1,754 ? -10.4°
Drops below altitude 10° 00:01:56 10° 351° (N) 2,376 ? -10.5°
Sets 00:04:57 0° 8° (N) 3,308 ? -10.7°
